Weather History for De Kooy, Netherlands

Change the Weather History Date:

Wednesday, April 10, 2013

  Actual Average Record
Temperature  
Mean Temperature 42 °F -  
Max Temperature 44 °F 53 °F 71 °F (2009)
Min Temperature 39 °F 42 °F 30 °F (2008)
Degree Days  
Heating Degree Days 24    
Moisture  
Dew Point 40 °F    
Average Humidity 95    
Maximum Humidity 100    
Minimum Humidity 79    
Precipitation  
Precipitation 0.00 in 0.06 in - ()
Sea Level Pressure  
Sea Level Pressure 29.61 in    
Wind  
Wind Speed 7 mph ()    
Max Wind Speed 15 mph    
Max Gust Speed -    
Visibility 1.8 miles    
Events Fog , Rain    
Averages and records for this station are not official NWS values.
T = Trace of Precipitation, MM = Missing Value Source: Averaged Metar Reports

Daily Weather History Graph

Daily Weather History Graph

Search for Another Location

Airport:

Trip Planner

Search our weather history database for the weather conditions in past years. The results will help you decide how hot, cold, wet, or windy it might be!

Date:

Astronomy

Apr. 10, 2013 Rise Set
Actual Time 6:53 AM CEST 8:31 PM CEST
Civil Twilight 6:17 AM CEST 9:08 PM CEST
Nautical Twilight 5:33 AM CEST 9:52 PM CEST
Astronomical Twilight 4:43 AM CEST 10:42 PM CEST
Moon 6:38 AM CEST (4/10) 8:58 PM CEST (4/10)
Length of Visible Light 14h 50m
Length of Day
13h 38m
New Moon, 0% of the Moon is Illuminated
Apr 10
New Moon
Apr 18
First Quarter
Apr 25
Full
May 2
Last Quarter
May 10
New

Hourly Weather History & Observations

Time (CEST) Temp. Windchill Dew Point Humidity Pressure Visibility Wind Dir Wind Speed Gust Speed Precip Events Conditions
12:04 AM 44.6 °F 40.2 °F 42.8 °F 93% 29.50 in 1.9 mi East 8.1 mph - N/A   Drizzle
12:08 AM 44.6 °F 40.7 °F 42.8 °F 93% 29.53 in - East 6.9 mph - N/A   Drizzle
12:25 AM 42.8 °F 38.6 °F 42.8 °F 100% 29.53 in 1.4 mi ENE 6.9 mph - N/A Rain Light Rain
12:55 AM 42.8 °F 37.0 °F 42.8 °F 100% 29.53 in 1.1 mi East 10.4 mph - N/A   Drizzle
1:02 AM 42.8 °F 37.0 °F 42.8 °F 100% 29.53 in 0.9 mi East 10.4 mph - N/A   Drizzle
1:06 AM 42.8 °F 37.0 °F 42.8 °F 100% 29.50 in 1.1 mi East 10.4 mph - N/A   Drizzle
1:19 AM 42.8 °F 37.0 °F 42.8 °F 100% 29.53 in 1.2 mi East 10.4 mph - N/A   Drizzle
1:25 AM 42.8 °F 37.0 °F 42.8 °F 100% 29.53 in 1.2 mi East 10.4 mph - N/A   Drizzle
1:55 AM 42.8 °F 37.5 °F 42.8 °F 100% 29.53 in 1.2 mi East 9.2 mph - N/A   Drizzle
2:00 AM 43 °F - 43 °F 99% 29.53 in 1 mi East 8.9 mph - - Rain Light Rain
2:25 AM 42.8 °F 38.0 °F 42.8 °F 100% 29.50 in 1.1 mi East 8.1 mph - N/A Rain Light Rain
2:55 AM 42.8 °F 37.5 °F 42.8 °F 100% 29.50 in 1.1 mi East 9.2 mph - N/A   Drizzle
3:04 AM 42.8 °F 38.0 °F 42.8 °F 100% 29.50 in 1.2 mi East 8.1 mph - N/A   Drizzle
3:25 AM 42.8 °F 38.0 °F 42.8 °F 100% 29.50 in 1.1 mi East 8.1 mph - N/A   Light Drizzle
3:55 AM 42.8 °F 37.5 °F 42.8 °F 100% 29.50 in 1.2 mi East 9.2 mph - N/A   Light Drizzle
4:13 AM 42.8 °F 38.0 °F 42.8 °F 100% 29.50 in 1.2 mi East 8.1 mph - N/A   Light Drizzle
4:25 AM 42.8 °F 37.5 °F 42.8 °F 100% 29.53 in 1.2 mi East 9.2 mph - N/A   Mostly Cloudy
4:49 AM 42.8 °F 38.6 °F 42.8 °F 100% 29.53 in 1.2 mi ENE 6.9 mph - N/A   Overcast
4:55 AM 42.8 °F 38.6 °F 42.8 °F 100% 29.53 in 1.2 mi ENE 6.9 mph - N/A   Overcast
5:00 AM 42 °F - 42 °F 100% 29.54 in 1 mi ENE 6.7 mph - - Rain Drizzle
5:25 AM 42.8 °F 39.3 °F 42.8 °F 100% 29.53 in 1.4 mi East 5.8 mph - N/A   Mostly Cloudy
5:45 AM 42.8 °F 39.3 °F 42.8 °F 100% 29.53 in 1.3 mi ENE 5.8 mph - N/A   Overcast
5:55 AM 42.8 °F 39.3 °F 42.8 °F 100% 29.53 in 1.2 mi ENE 5.8 mph - N/A   Overcast
6:25 AM 42.8 °F 41.1 °F 41.0 °F 93% 29.53 in 1.1 mi NNE 3.5 mph - N/A   Overcast
6:37 AM 41.0 °F - 41.0 °F 100% 29.53 in 0.9 mi NNE 2.3 mph - N/A   Overcast
6:41 AM 41.0 °F - 41.0 °F 100% 29.53 in 1.0 mi NNE 2.3 mph - N/A   Overcast
6:45 AM 41.0 °F - 41.0 °F 100% 29.53 in 0.9 mi North 2.3 mph - N/A   Overcast
6:55 AM 41.0 °F 39.0 °F 41.0 °F 100% 29.53 in 0.8 mi NNE 3.5 mph - N/A   Overcast
7:00 AM 41.0 °F 39.0 °F 41.0 °F 100% 29.53 in 0.8 mi NNE 3.5 mph - N/A   Overcast
7:04 AM 41.0 °F - 41.0 °F 100% 29.53 in 0.9 mi North 2.3 mph - N/A   Overcast
7:08 AM 41.0 °F - 41.0 °F 100% 29.53 in 1.1 mi NNW 1.2 mph - N/A   Overcast
7:25 AM 42.8 °F - 41.0 °F 93% 29.53 in 1.1 mi NNW 2.3 mph - N/A   Overcast
7:26 AM 42.8 °F - 41.0 °F 93% 29.53 in 1.1 mi NNW 2.3 mph - N/A   Overcast
7:27 AM 42.8 °F - 41.0 °F 93% 29.53 in 1.1 mi NNW 2.3 mph - N/A   Overcast
7:35 AM 42.8 °F - 42.8 °F 100% 29.56 in 0.9 mi NNW 2.3 mph - N/A   Overcast
7:40 AM 42.8 °F - 42.8 °F 100% 29.56 in 1.0 mi NNW 2.3 mph - N/A   Overcast
7:55 AM 42.8 °F - 42.8 °F 100% 29.56 in 0.9 mi WNW 2.3 mph - N/A   Mostly Cloudy
7:57 AM 42.8 °F - 42.8 °F 100% 29.56 in 1.1 mi NW 2.3 mph - N/A   Mostly Cloudy
8:00 AM 42 °F - 42 °F 100% 29.57 in 1 mi NW 2.2 mph - -   Mist
8:06 AM 42.8 °F 41.1 °F 42.8 °F 100% 29.56 in 0.9 mi NW 3.5 mph - N/A   Mostly Cloudy
8:10 AM 42.8 °F 41.1 °F 42.8 °F 100% 29.56 in 0.9 mi NNW 3.5 mph - N/A   Mostly Cloudy
8:14 AM 42.8 °F 40.1 °F 42.8 °F 100% 29.56 in 1.0 mi NNW 4.6 mph - N/A   Mostly Cloudy
8:18 AM 42.8 °F 40.1 °F 42.8 °F 100% 29.56 in 1.1 mi NNW 4.6 mph - N/A   Mostly Cloudy
8:25 AM 42.8 °F 40.1 °F 42.8 °F 100% 29.56 in 1.2 mi NNW 4.6 mph - N/A   Mostly Cloudy
8:36 AM 42.8 °F 40.1 °F 42.8 °F 100% 29.56 in 1.2 mi NNW 4.6 mph - N/A   Overcast
8:55 AM 42.8 °F 41.1 °F 42.8 °F 100% 29.56 in 1.3 mi NNW 3.5 mph - N/A   Mostly Cloudy
9:05 AM 42.8 °F 41.1 °F 42.8 °F 100% 29.56 in 1.4 mi NNW 3.5 mph - N/A   Overcast
9:11 AM 42.8 °F 41.1 °F 42.8 °F 100% 29.56 in 1.4 mi NW 3.5 mph - N/A   Overcast
9:15 AM 42.8 °F 40.1 °F 42.8 °F 100% 29.56 in 1.4 mi WNW 4.6 mph - N/A   Overcast
9:25 AM 42.8 °F 39.3 °F 42.8 °F 100% 29.56 in 1.3 mi WNW 5.8 mph - N/A   Overcast
9:28 AM 42.8 °F 39.3 °F 42.8 °F 100% 29.56 in 0.9 mi WNW 5.8 mph - N/A   Overcast
9:32 AM 42.8 °F 40.1 °F 42.8 °F 100% 29.56 in 1.1 mi NW 4.6 mph - N/A   Overcast
9:55 AM 42.8 °F 38.6 °F 42.8 °F 100% 29.59 in 0.7 mi WNW 6.9 mph - N/A   Overcast
10:19 AM 41.0 °F 35.8 °F 41.0 °F 100% 29.59 in 1.1 mi West 8.1 mph - N/A   Mostly Cloudy
10:25 AM 41.0 °F 35.8 °F 41.0 °F 100% 29.59 in 1.1 mi WNW 8.1 mph - N/A   Overcast
10:36 AM 41.0 °F 36.4 °F 41.0 °F 100% 29.59 in 1.2 mi West 6.9 mph - N/A   Overcast
10:55 AM 42.8 °F 38.0 °F 42.8 °F 100% 29.59 in 1.5 mi West 8.1 mph - N/A   Overcast
11:00 AM 42 °F - 41 °F 97% 29.62 in 2 mi West 6.7 mph - -   Mist
11:25 AM 42.8 °F 37.5 °F 42.8 °F 100% 29.62 in 1.7 mi West 9.2 mph - N/A   Overcast
11:55 AM 41.0 °F 35.2 °F 41.0 °F 100% 29.62 in 1.6 mi West 9.2 mph - N/A   Overcast
12:25 PM 42.8 °F 37.5 °F 41.0 °F 93% 29.62 in 1.4 mi WNW 9.2 mph - N/A   Overcast
12:55 PM 44.6 °F 40.7 °F 42.8 °F 93% 29.62 in 1.7 mi WNW 6.9 mph - N/A   Overcast
1:25 PM 42.8 °F 37.5 °F 42.8 °F 100% 29.62 in 1.4 mi WNW 9.2 mph - N/A   Overcast
1:28 PM 42.8 °F 37.0 °F 42.8 °F 100% 29.62 in 1.2 mi West 10.4 mph - N/A   Overcast
1:32 PM 42.8 °F 37.0 °F 41.0 °F 93% 29.62 in 1.3 mi West 10.4 mph - N/A   Overcast
1:38 PM 42.8 °F 37.0 °F 42.8 °F 100% 29.65 in 1.5 mi West 10.4 mph - N/A   Mostly Cloudy
1:55 PM 42.8 °F 38.0 °F 41.0 °F 93% 29.65 in 1.8 mi WNW 8.1 mph - N/A   Overcast
2:00 PM 42 °F - 41 °F 95% 29.66 in 2 mi West 8.9 mph - -   Mist
2:25 PM 41.0 °F 35.2 °F 41.0 °F 100% 29.65 in 0.8 mi West 9.2 mph - N/A   Overcast
2:27 PM 41.0 °F 35.2 °F 41.0 °F 100% 29.65 in - WSW 9.2 mph - N/A Fog Fog
2:38 PM 41.0 °F 35.2 °F 41.0 °F 100% 29.65 in 0.3 mi WSW 9.2 mph - N/A Fog Fog
2:55 PM 41.0 °F 34.7 °F 41.0 °F 100% 29.65 in 0.6 mi West 10.4 mph - N/A Fog Fog
2:59 PM 41.0 °F 34.3 °F 41.0 °F 100% 29.65 in 0.7 mi West 11.5 mph - N/A   Overcast
3:03 PM 41.0 °F 34.3 °F 41.0 °F 100% 29.65 in 0.7 mi WSW 11.5 mph - N/A   Overcast
3:05 PM 41.0 °F 34.3 °F 41.0 °F 100% 29.65 in 0.7 mi WSW 11.5 mph - N/A   Mostly Cloudy
3:19 PM 41.0 °F 34.7 °F 41.0 °F 100% 29.68 in 0.7 mi West 10.4 mph - N/A   Overcast
3:25 PM 42.8 °F 36.6 °F 42.8 °F 100% 29.68 in 0.9 mi West 11.5 mph - N/A   Overcast
3:34 PM 42.8 °F 35.8 °F 41.0 °F 93% 29.68 in 1.2 mi West 13.8 mph - N/A   Overcast
3:47 PM 42.8 °F 35.8 °F 41.0 °F 93% 29.68 in 1.6 mi West 13.8 mph - N/A   Overcast
3:54 PM 42.8 °F 35.4 °F 41.0 °F 93% 29.68 in 1.7 mi West 15.0 mph - N/A   Overcast
3:55 PM 42.8 °F 35.8 °F 41.0 °F 93% 29.68 in 1.8 mi West 13.8 mph - N/A   Overcast
4:25 PM 41.0 °F 33.1 °F 41.0 °F 100% 29.68 in 1.3 mi West 15.0 mph - N/A   Overcast
4:55 PM 41.0 °F 33.5 °F 39.2 °F 93% 29.68 in 1.7 mi West 13.8 mph - N/A   Overcast
5:00 PM 41 °F - 39 °F 91% 29.69 in 2 mi West 13.4 mph - -   Mist
5:25 PM 41.0 °F 33.5 °F 39.2 °F 93% 29.68 in 2.5 mi West 13.8 mph - N/A   Overcast
5:30 PM 41.0 °F 33.5 °F 39.2 °F 93% 29.68 in 2.8 mi West 13.8 mph - N/A   Overcast
5:37 PM 41.0 °F 33.9 °F 39.2 °F 93% 29.68 in - West 12.7 mph - N/A   Overcast
5:55 PM 41.0 °F 33.5 °F 37.4 °F 87% 29.68 in 3.1 mi West 13.8 mph - N/A   Overcast
6:24 PM 41.0 °F 33.1 °F 37.4 °F 87% 29.71 in 3.1 mi WSW 15.0 mph - N/A   Overcast
6:25 PM 41.0 °F 33.5 °F 37.4 °F 87% 29.71 in 3.1 mi WSW 13.8 mph - N/A   Overcast
6:55 PM 39.2 °F 31.6 °F 35.6 °F 87% 29.71 in 3.7 mi WSW 12.7 mph - N/A   Overcast
7:09 PM 39.2 °F 31.6 °F 35.6 °F 87% 29.71 in 3.7 mi West 12.7 mph - N/A   Overcast
7:25 PM 39.2 °F 31.6 °F 35.6 °F 87% 29.71 in 3.7 mi WSW 12.7 mph - N/A   Overcast
7:55 PM 39.2 °F 32.5 °F 35.6 °F 87% 29.71 in 3.1 mi WSW 10.4 mph - N/A   Overcast
8:00 PM 39 °F - 36 °F 84% 29.72 in 3 mi WSW 8.9 mph - -   Mist
8:10 PM 39.2 °F 33.6 °F 35.6 °F 87% 29.71 in - West 8.1 mph - N/A   Overcast
8:25 PM 39.2 °F 33.6 °F 35.6 °F 87% 29.71 in - WSW 8.1 mph - N/A   Overcast
8:49 PM 39.2 °F 33.0 °F 35.6 °F 87% 29.71 in 3.1 mi SW 9.2 mph - N/A   Overcast
8:55 PM 39.2 °F 33.6 °F 35.6 °F 87% 29.71 in 3.1 mi SW 8.1 mph - N/A   Overcast
9:20 PM 39.2 °F 33.6 °F 35.6 °F 87% 29.71 in 3.7 mi WSW 8.1 mph - N/A   Overcast
9:25 PM 39.2 °F 33.6 °F 35.6 °F 87% 29.71 in 3.7 mi WSW 8.1 mph - N/A   Overcast
9:45 PM 39.2 °F 34.2 °F 35.6 °F 87% 29.71 in 3.7 mi SW 6.9 mph - N/A   Overcast
9:55 PM 39.2 °F 34.2 °F 33.8 °F 81% 29.71 in 4.3 mi SW 6.9 mph - N/A   Overcast
9:57 PM 39.2 °F 34.2 °F 35.6 °F 87% 29.71 in 4.3 mi SW 6.9 mph - N/A   Overcast
10:06 PM 39.2 °F 35.0 °F 35.6 °F 87% 29.71 in 3.7 mi SW 5.8 mph - N/A   Overcast
10:10 PM 39.2 °F 35.0 °F 35.6 °F 87% 29.71 in 3.7 mi SW 5.8 mph - N/A   Overcast
10:18 PM 39.2 °F 35.0 °F 33.8 °F 81% 29.71 in 3.7 mi SW 5.8 mph - N/A   Overcast
10:25 PM 39.2 °F 35.0 °F 33.8 °F 81% 29.71 in 3.7 mi SW 5.8 mph - N/A   Overcast
10:32 PM 39.2 °F 34.2 °F 33.8 °F 81% 29.71 in 3.7 mi WSW 6.9 mph - N/A   Overcast
10:36 PM 39.2 °F 35.0 °F 35.6 °F 87% 29.71 in 3.7 mi WSW 5.8 mph - N/A   Overcast
10:55 PM 39.2 °F 35.0 °F 33.8 °F 81% 29.68 in 3.7 mi SW 5.8 mph - N/A   Overcast
11:00 PM 39 °F - 35 °F 79% 29.70 in 4 mi SW 4.5 mph - -   Mist
11:25 PM 39.2 °F 35.0 °F 33.8 °F 81% 29.68 in 3.7 mi SSW 5.8 mph - N/A   Overcast
11:55 PM 39.2 °F 37.0 °F 35.6 °F 87% 29.68 in 3.7 mi WSW 3.5 mph - N/A   Overcast